Tracking 18840 objects as of 19-November-2017
HD Live streaming from Space Station
objects crossing your sky now

FENGYUN 1C DEB

Track FENGYUN 1C DEB now!
10-day predictions


NORAD ID: 31991
Int'l Code: 1999-025CPU
Perigee: 858.4 km
Apogee: 1,223.6 km
Inclination: 100.4 °
Period: 105.8 minutes
Semi major axis: 7411 km
RCS: 0.0125 m2 (small)
Launch date: May 10, 1999
Source: People's Republic of China (PRC)
Launch site: Taiyaun Space Center, China (TSC)

Note: This is SATELLITE DEBRIS
aabbcc
Your satellite tracking list
Your tracking list is empty




NASA's NSSDC Master Catalog

Two Line Element Set (TLE):
1 31991U 99025CPU 17321.08560552  .00000025  00000-0  80255-4 0  9994
2 31991 100.4152 266.4980 0246353 119.6214 242.9708 13.60507368516496
Source of the keplerian elements: AFSPC